{"data":{"norad_id":61213,"intl_designator":"2024-171P","name":"STARLINK-32386","alt_names":[],"object_type":"PAYLOAD","status":"ACTIVE","operator":null,"country":"US","launch_date":"2024-09-20","launch_site_code":"AFWTR","launch_vehicle":null,"mission":null,"orbit_class":"UNKNOWN","rcs_meters":null,"size_class":null,"mass_kg":null,"dimensions":null,"purposes":["comms"],"wikipedia_slug":null,"has_3d_model":false,"image_url":null,"decayed_at":null,"tle_current":{"epoch":"2026-09-21T20:52:22.418688Z","epoch_age_seconds":74004,"freshness":"FRESH","line1":"1 61213U 24171P   26264.86970392 -.00007282  00000+0 -20447-3 0  9992","line2":"2 61213  53.1609 127.0149 0002064  73.0838 287.0391 15.34413681112464","mean_motion":15.34413681,"eccentricity":0.0002064,"inclination_deg":53.1609,"raan_deg":127.0149,"arg_perigee_deg":73.0838,"mean_anomaly_deg":287.0391,"bstar":-0.00020447,"rev_number":11246,"period_min":93.846921324472,"perigee_km":461.25063666126,"apogee_km":464.07451872693,"semimajor_km":6840.7995776941,"source":"CELESTRAK","updated_at":"2026-09-22T09:00:49.341687Z"}}}